Date String (YYYY-MM-DD hh:mm:ss) UTC,Instrument flags,Ambient pressure (hPa),Sample flow (lpm),Bypass flow (lpm),Sample temperature (°C),Ambient temperature (°C),ASC tube jacket temperature (°C),LED temperature (°C),Box temperature (°C),Sample RH (%),Span deviation,Mass concentration (μg/m³),Mass concentration (μg/m³),Mass concentration (μg/m³)
DateTimeUTC,F1_M11,P_M11,Q1_M11,Q2_M11,T1_M11,T2_M11,T3_M11,T4_M11,T5_M11,U1_M11,ZSPAN_M11,X0_M11,X2_M11,X1_M11
2022-07-06 21:00:00,,0827.9,5.00,0.00,29.6,28.3,00.0,38.3,31.6,31.4,0000.0,0008.03,0003.83,0003.18
2022-07-06 21:01:00,,0827.9,5.00,0.00,29.6,28.5,00.0,38.3,31.7,31.0,0000.0,0007.04,0003.74,0003.13
2022-07-06 21:02:00,,0827.9,5.00,0.00,29.7,28.4,00.0,38.3,31.7,32.2,0000.0,0006.80,0003.67,0003.07
2022-07-06 21:03:00,,0827.7,5.01,0.00,29.7,27.8,00.0,38.3,31.6,32.1,0000.0,0006.69,0003.66,0003.05
2022-07-06 21:04:00,,0827.7,4.99,0.00,29.6,27.4,00.0,38.2,31.5,31.0,0000.0,0006.74,0003.66,0003.05
2022-07-06 21:05:00,,0827.8,4.99,0.00,29.6,27.3,00.0,38.3,31.4,30.5,0000.0,0006.80,0003.66,0003.04
2022-07-06 21:06:00,,0827.7,5.00,0.00,29.5,27.4,00.0,38.3,31.3,30.4,0000.0,0006.80,0003.66,0003.03
2022-07-06 21:07:00,,0827.8,4.99,0.00,29.5,27.6,00.0,38.3,31.3,30.6,0000.0,0006.69,0003.63,0002.98
2022-07-06 21:08:00,,0827.7,5.00,0.00,29.5,27.8,00.0,38.3,31.4,30.5,0000.0,0006.53,0003.60,0002.94
2022-07-06 21:09:00,,0827.7,5.00,0.00,29.6,28.0,00.0,38.3,31.5,30.6,0000.0,0006.55,0003.53,0002.91
2022-07-06 21:10:00,,0827.8,4.99,0.00,29.6,28.2,00.0,38.3,31.5,30.3,0000.0,0006.30,0003.46,0002.87
2022-07-06 21:11:00,,0827.8,5.00,0.00,29.6,28.4,00.0,38.3,31.6,30.3,0000.0,0006.06,0003.42,0002.82
2022-07-06 21:12:00,,0827.7,5.01,0.00,29.6,28.0,00.0,38.3,31.6,30.5,0000.0,0005.97,0003.41,0002.80
2022-07-06 21:13:00,,0827.7,5.00,0.00,29.6,27.4,00.0,38.2,31.5,30.7,0000.0,0006.09,0003.42,0002.80
2022-07-06 21:14:00,,0827.8,4.99,0.00,29.6,27.1,00.0,38.2,31.4,30.5,0000.0,0006.01,0003.41,0002.78
2022-07-06 21:15:00,,0827.8,5.00,0.00,29.5,27.2,00.0,38.2,31.3,30.8,0000.0,0006.62,0003.43,0002.77
2022-07-06 21:16:00,,0827.9,5.00,0.00,29.5,27.3,00.0,38.2,31.2,31.0,0000.0,0007.10,0003.42,0002.76
2022-07-06 21:17:00,,0827.7,5.00,0.00,29.4,27.5,00.0,38.2,31.3,31.1,0000.0,0007.18,0003.43,0002.75
2022-07-06 21:18:00,,0827.8,5.00,0.00,29.4,27.7,00.0,38.2,31.3,32.1,0000.0,0007.37,0003.45,0002.73
2022-07-06 21:19:00,,0827.9,5.01,0.00,29.5,27.9,00.0,38.2,31.4,32.4,0000.0,0007.87,0003.46,0002.72
2022-07-06 21:20:00,,0827.9,5.00,0.00,29.5,28.1,00.0,38.2,31.4,32.9,0000.0,0008.09,0003.48,0002.72
2022-07-06 21:21:00,,0827.9,5.00,0.00,29.5,28.3,00.0,38.2,31.5,32.6,0000.0,0009.06,0003.48,0002.72
2022-07-06 21:22:00,,0828.1,5.00,0.00,29.6,28.3,00.0,38.2,31.5,32.2,0000.0,0009.53,0003.50,0002.72
2022-07-06 21:23:00,,0827.9,5.00,0.00,29.6,27.7,00.0,38.2,31.5,32.0,0000.0,0010.17,0003.49,0002.71
2022-07-06 21:24:00,,0827.9,5.01,0.00,29.5,27.2,00.0,38.1,31.4,32.0,0000.0,0011.36,0003.50,0002.69
2022-07-06 21:25:00,,0827.9,5.00,0.00,29.5,27.1,00.0,38.1,31.3,32.0,0000.0,0011.38,0003.49,0002.67
2022-07-06 21:26:00,,0827.9,4.99,0.00,29.4,27.1,00.0,38.1,31.2,31.7,0000.0,0010.96,0003.45,0002.65
2022-07-06 21:27:00,,0827.9,5.00,0.00,29.4,27.3,00.0,38.1,31.2,31.6,0000.0,0010.74,0003.45,0002.61
2022-07-06 21:28:00,,0827.8,5.00,0.00,29.4,27.5,00.0,38.1,31.2,31.9,0000.0,0010.72,0003.42,0002.60
2022-07-06 21:29:00,,0827.8,4.99,0.00,29.4,27.7,00.0,38.1,31.3,32.0,0000.0,0010.53,0003.36,0002.57
2022-07-06 21:30:00,,0827.8,4.99,0.00,29.4,27.9,00.0,38.1,31.3,32.4,0000.0,0010.04,0003.33,0002.56
2022-07-06 21:31:00,,0827.8,5.00,0.00,29.4,28.1,00.0,38.1,31.4,32.7,0000.0,0010.16,0003.34,0002.54
2022-07-06 21:32:00,,0827.7,5.00,0.00,29.5,28.2,00.0,38.2,31.4,32.7,0000.0,0009.14,0003.32,0002.51
2022-07-06 21:33:00,,0827.7,5.00,0.00,29.5,28.4,00.0,38.2,31.5,32.5,0000.0,0008.80,0003.33,0002.51
2022-07-06 21:34:00,,0827.6,5.00,0.00,29.5,28.1,00.0,38.2,31.5,32.6,0000.0,0008.13,0003.36,0002.53
2022-07-06 21:35:00,,0827.6,5.01,0.00,29.5,27.5,00.0,38.1,31.4,32.6,0000.0,0007.07,0003.39,0002.54
2022-07-06 21:36:00,,0827.6,5.00,0.00,29.5,27.0,00.0,38.1,31.3,33.2,0000.0,0007.30,0003.43,0002.56
2022-07-06 21:37:00,,0827.6,5.00,0.00,29.4,27.0,00.0,38.1,31.2,33.6,0000.0,0007.29,0003.44,0002.57
2022-07-06 21:38:00,,0827.4,5.00,0.00,29.3,27.1,00.0,38.1,31.1,34.1,0000.0,0007.53,0003.46,0002.60
2022-07-06 21:39:00,,0827.4,5.00,0.00,29.3,27.3,00.0,38.1,31.1,34.0,0000.0,0008.39,0003.53,0002.64
2022-07-06 21:40:00,,0827.4,4.99,0.00,29.3,27.5,00.0,38.1,31.1,34.0,0000.0,0009.78,0003.63,0002.70
2022-07-06 21:41:00,,0827.4,4.99,0.00,29.3,27.7,00.0,38.1,31.2,33.4,0000.0,0009.88,0003.67,0002.71
2022-07-06 21:42:00,,0827.4,4.99,0.00,29.3,27.8,00.0,38.1,31.3,33.4,0000.0,0009.47,0003.64,0002.71
2022-07-06 21:43:00,,0827.4,5.00,0.00,29.4,28.0,00.0,38.1,31.3,33.2,0000.0,0009.78,0003.69,0002.75
2022-07-06 21:44:00,,0827.5,5.01,0.00,29.4,28.2,00.0,38.1,31.4,33.7,0000.0,0009.77,0003.69,0002.76
2022-07-06 21:45:00,,0827.5,5.01,0.00,29.4,28.3,00.0,38.1,31.4,33.5,0000.0,0009.65,0003.65,0002.77
2022-07-06 21:46:00,,0827.5,4.99,0.00,29.5,28.4,00.0,38.2,31.5,33.6,0000.0,0009.60,0003.64,0002.79
2022-07-06 21:47:00,,0827.5,5.01,0.00,29.5,28.0,00.0,38.1,31.5,34.0,0000.0,0009.47,0003.61,0002.81
2022-07-06 21:48:00,,0827.5,5.01,0.00,29.5,27.3,00.0,38.1,31.3,34.2,0000.0,0009.41,0003.61,0002.83
2022-07-06 21:49:00,,0827.6,4.99,0.00,29.4,27.0,00.0,38.1,31.3,34.5,0000.0,0009.33,0003.63,0002.84
2022-07-06 21:50:00,,0827.6,4.99,0.00,29.4,27.0,00.0,38.1,31.1,34.7,0000.0,0008.56,0003.59,0002.83
2022-07-06 21:51:00,,0827.7,5.00,0.00,29.4,27.1,00.0,38.1,31.1,34.0,0000.0,0007.06,0003.52,0002.79
2022-07-06 21:52:00,,0827.7,5.00,0.00,29.4,27.3,00.0,38.1,31.2,33.6,0000.0,0006.84,0003.50,0002.79
2022-07-06 21:53:00,,0827.7,5.01,0.00,29.4,27.5,00.0,38.1,31.2,33.9,0000.0,0007.06,0003.50,0002.80
2022-07-06 21:54:00,,0827.8,5.00,0.00,29.5,27.7,00.0,38.1,31.2,33.4,0000.0,0006.54,0003.46,0002.78
2022-07-06 21:55:00,,0827.7,5.00,0.00,29.5,27.8,00.0,38.1,31.3,32.8,0000.0,0006.26,0003.42,0002.75
2022-07-06 21:56:00,,0827.7,5.00,0.00,29.5,28.0,00.0,38.1,31.3,32.7,0000.0,0006.34,0003.43,0002.73
2022-07-06 21:57:00,,0827.7,5.01,0.00,29.5,28.2,00.0,38.1,31.4,32.4,0000.0,0006.56,0003.44,0002.69
2022-07-06 21:58:00,,0827.7,4.99,0.00,29.6,28.3,00.0,38.2,31.5,32.2,0000.0,0006.41,0003.41,0002.65
2022-07-06 21:59:00,,0827.7,5.00,0.00,29.6,28.4,00.0,38.2,31.5,32.2,0000.0,0006.40,0003.38,0002.60
